Regional Weather Roundup
Issued by NWS Sioux Falls, SD

Home | Current Version | Previous Version | Graphics & Text | Print | Product List | Glossary On
Versions: 1 2 3 4 5 6 7 8 9 10 11 12 13 14 15 16 17 18 19 20 21 22 23 24 25 26 27 28 29 30 31 32 33 34 35 36 37 38 39 40 41 42 43 44 45 46 47 48 49 50
000
ASUS43 KFSD 230710
RWRFSD

WEATHER ROUNDUP FOR SE SOUTH DAKOTA/SW MINNESOTA/NW IOWA
NATIONAL WEATHER SERVICE SIOUX FALLS SD
200 AM CDT SAT JUL 23 2016

NOTE: "FAIR" INDICATES FEW OR NO CLOUDS BELOW 12,000 FEET WITH NO
SIGNIFICANT WEATHER AND OR OBSTRUCTIONS TO VISIBILITY.


SDZ038>040-050-052>070-230800-
SOUTHEAST SOUTH DAKOTA

CITY           SKY/WX    TMP DP  RH WIND       PRES   REMARKS
BROOKINGS      CLOUDY    74  69  85 NE7       29.93F
CHAMBERLAIN    CLOUDY    82  80  94 NE9       29.89S
HURON          CLOUDY    78  73  84 NE7       29.89F
MADISON        CLOUDY    75  75 100 E6        29.93F
MITCHELL       CLOUDY    80  78  94 E7        29.87F
SIOUX FALLS    CLOUDY    80  78  94 E9        29.90F
WINNER         FAIR      83  76  79 E7        29.90R
YANKTON        CLOUDY    81  77  89 E7        29.85F
$$

MNZ071-072-080-081-089-090-097-098-230800-
SOUTHWEST MINNESOTA

CITY           SKY/WX    TMP DP  RH WIND       PRES   REMARKS
FAIRMONT       CLOUDY    79  61  53 E7        29.95S
JACKSON        CLOUDY    79  75  89 E7        29.97F FOG
LUVERNE        CLOUDY    79  73  83 E6        29.92F
MARSHALL       CLOUDY    77  71  82 SE8       29.93F
MONTEVIDEO     CLOUDY    73  70  88 CALM      29.95F
REDWOOD FALLS  PTCLDY    75  69  81 E3        29.94F
TRACY          CLOUDY    74  72  92 CALM      29.95F
WINDOM         CLOUDY    79  75  89 SE5       29.95F
WORTHINGTON    MOCLDY    78  77  96 E6        29.96F
$$

IAZ001>003-012>014-020>022-031-032-NEZ013-014-SDZ071-230800-
NORTHWEST IOWA

CITY           SKY/WX    TMP DP  RH WIND       PRES   REMARKS
CHEROKEE       MOCLDY    80  79  97 SE7       29.91F
DENISON        CLOUDY    79  77  94 SE9       29.90S
ESTHERVILLE    CLOUDY    77  77 100 E3        29.95F
LE MARS        MOCLDY    82  79  89 E6        29.90S
SHELDON        CLOUDY    79  79 100 VRB5      29.91F
SIOUX CITY     MOCLDY    83  78  85 SE9       29.88
SPENCER        CLOUDY    80  77  90 SE9       29.93F
STORM LAKE     CLOUDY    79  79 100 SE7       29.94F
$$

ABBREVIATIONS USED IN REMARKS
   TC - TEMPERATURE IN CELSIUS
  WCI - WIND CHILL INDEX
   HX - HEAT INDEX
  VSB - VISIBILITY





USA.gov is the U.S. government's official web portal to all federal, state and local government web resources and services.